Weather History for KPZQ - January, 2013

Change the Weather History Date:

Friday, January 4, 2013

  Actual Average (KAPN) Record (KAPN)
Temperature  
Mean Temperature 28 °F 20 °F  
Max Temperature 32 °F 27 °F 48 °F (2007)
Min Temperature 25 °F 13 °F -19 °F (1981)
Degree Days  
Heating Degree Days 36 45  
Month to date heating degree days 178  
Since 1 July heating degree days 3239  
Moisture  
Dew Point 22 °F    
Average Humidity 77    
Maximum Humidity 83    
Minimum Humidity 63    
Precipitation  
Precipitation 0.00 in 0.06 in 1.23 in (1997)
Month to date precipitation 0.23  
Year to date precipitation 0.23  
Snow  
Snow 0.00 in 0.70 in 7.40 in (1982)
Month to date snowfall 2.7  
Since 1 July snowfall 30.0  
Snow Depth -    
Sea Level Pressure  
Sea Level Pressure 29.86 in    
Wind  
Wind Speed 15 mph (WSW)    
Max Wind Speed 21 mph    
Max Gust Speed 31 mph    
Visibility 10 miles    
Events      
T = Trace of Precipitation, MM = Missing Value Source: NWS Daily Summary

Daily Weather History Graph

Daily Weather History Graph

Search for Another Location

Airport or City:

Trip Planner

Search our weather history database for the weather conditions in past years. The results will help you decide how hot, cold, wet, or windy it might be!

Date:

Astronomy

Jan. 04, 2013 Rise Set
Actual Time 8:14 AM EST 5:06 PM EST
Civil Twilight 7:41 AM EST 5:39 PM EST
Nautical Twilight 7:03 AM EST 6:17 PM EST
Astronomical Twilight 6:28 AM EST 6:52 PM EST
Moon 12:00 AM EST (1/4) 11:34 AM EST (1/4)
Length of Visible Light 9h 58m
Length of Day
8h 51m
Waning Gibbous, 55% of the Moon is Illuminated
Jan 4
Waning Gibbous
Jan 4
Last Quarter
Jan 11
New
Jan 18
First Quarter
Jan 26
Full

Hourly Weather History & Observations

Time (EST) Temp. Windchill Dew Point Humidity Pressure Visibility Wind Dir Wind Speed Gust Speed Precip Events Conditions
12:15 AM 27.9 °F 15.9 °F 21.2 °F 76% 29.88 in 10.0 mi SW 16.1 mph 21.9 mph N/A   Mostly Cloudy
12:35 AM 27.5 °F 15.4 °F 21.2 °F 77% 29.87 in 10.0 mi SW 16.1 mph 21.9 mph N/A   Scattered Clouds
12:56 AM 27.3 °F 13.6 °F 21.0 °F 77% 29.85 in 10.0 mi WSW 20.7 mph 27.6 mph N/A   Clear
1:15 AM 27.0 °F 13.2 °F 20.8 °F 78% 29.84 in 10.0 mi SW 20.7 mph 27.6 mph N/A   Clear
1:35 AM 26.6 °F 13.8 °F 20.7 °F 78% 29.82 in 10.0 mi SW 17.3 mph 25.3 mph N/A   Clear
1:55 AM 26.2 °F 14.2 °F 20.3 °F 78% 29.81 in 10.0 mi SW 15.0 mph 23.0 mph N/A   Clear
2:15 AM 25.7 °F 12.3 °F 20.1 °F 79% 29.78 in 10.0 mi SW 18.4 mph 25.3 mph N/A   Clear
2:35 AM 26.2 °F 13.0 °F 20.1 °F 78% 29.78 in 10.0 mi SW 18.4 mph 27.6 mph N/A   Clear
2:55 AM 26.2 °F 14.2 °F 19.9 °F 77% 29.78 in 10.0 mi SW 15.0 mph 21.9 mph N/A   Clear
3:16 AM 26.4 °F 14.5 °F 19.4 °F 75% 29.77 in 10.0 mi SW 15.0 mph 25.3 mph N/A   Clear
3:35 AM 26.6 °F 13.1 °F 19.2 °F 74% 29.76 in 10.0 mi SW 19.6 mph 25.3 mph N/A   Clear
3:54 AM 26.6 °F 13.4 °F 18.9 °F 73% 29.77 in 10.0 mi SW 18.4 mph 27.6 mph N/A   Clear
4:15 AM 26.8 °F 12.9 °F 18.5 °F 71% 29.75 in 10.0 mi SW 20.7 mph 31.1 mph N/A   Clear
4:35 AM 26.6 °F 14.7 °F 18.3 °F 71% 29.76 in 10.0 mi WSW 15.0 mph 25.3 mph N/A   Clear
4:55 AM 26.8 °F 14.9 °F 18.5 °F 71% 29.77 in 10.0 mi WSW 15.0 mph 29.9 mph N/A   Clear
5:15 AM 26.6 °F 15.2 °F 18.5 °F 71% 29.77 in 10.0 mi WSW 13.8 mph 25.3 mph N/A   Clear
5:56 AM 27.1 °F 16.4 °F 19.6 °F 73% 29.80 in 10.0 mi West 12.7 mph 24.2 mph N/A   Mostly Cloudy
6:15 AM 27.3 °F 16.1 °F 20.3 °F 75% 29.80 in 10.0 mi West 13.8 mph 19.6 mph N/A   Overcast
6:36 AM 27.5 °F 17.4 °F 21.0 °F 77% 29.79 in 10.0 mi West 11.5 mph 18.4 mph N/A   Overcast
6:55 AM 27.9 °F 18.4 °F 21.4 °F 77% 29.80 in 10.0 mi WSW 10.4 mph 20.7 mph N/A   Overcast
7:15 AM 28.4 °F 18.5 °F 21.9 °F 77% 29.80 in 10.0 mi WSW 11.5 mph 21.9 mph N/A   Overcast
7:36 AM 28.8 °F 19.5 °F 21.9 °F 76% 29.80 in 10.0 mi West 10.4 mph 20.7 mph N/A   Overcast
7:55 AM 28.9 °F 18.2 °F 21.7 °F 74% 29.80 in 10.0 mi West 13.8 mph 20.7 mph N/A   Overcast
8:15 AM 28.6 °F 16.8 °F 21.2 °F 74% 29.81 in 10.0 mi West 16.1 mph 23.0 mph N/A   Overcast
8:35 AM 28.4 °F 15.4 °F 21.2 °F 74% 29.82 in 10.0 mi West 19.6 mph 25.3 mph N/A   Overcast
8:55 AM 28.4 °F 17.5 °F 21.2 °F 74% 29.82 in 10.0 mi West 13.8 mph 24.2 mph N/A   Overcast
9:15 AM 28.4 °F 17.0 °F 21.7 °F 76% 29.83 in 10.0 mi West 15.0 mph 19.6 mph N/A   Overcast
9:35 AM 28.4 °F 19.7 °F 21.7 °F 76% 29.83 in 10.0 mi West 9.2 mph 21.9 mph N/A   Overcast
9:55 AM 28.4 °F 15.8 °F 21.7 °F 76% 29.83 in 10.0 mi WSW 18.4 mph 25.3 mph N/A   Overcast
10:15 AM 28.4 °F 18.0 °F 21.9 °F 77% 29.84 in 10.0 mi West 12.7 mph 25.3 mph N/A   Overcast
10:35 AM 28.6 °F 18.2 °F 22.1 °F 77% 29.85 in 10.0 mi West 12.7 mph 19.6 mph N/A   Overcast
10:55 AM 28.4 °F 17.5 °F 22.1 °F 77% 29.85 in 10.0 mi WSW 13.8 mph 19.6 mph N/A   Overcast
11:16 AM 28.4 °F 16.6 °F 22.1 °F 77% 29.85 in 10.0 mi WSW 16.1 mph 26.5 mph N/A   Overcast
11:35 AM 28.4 °F 16.6 °F 22.1 °F 77% 29.84 in 10.0 mi WSW 16.1 mph 24.2 mph N/A   Overcast
11:55 AM 28.4 °F 16.6 °F 21.9 °F 77% 29.84 in 10.0 mi WSW 16.1 mph 25.3 mph N/A   Overcast
12:15 PM 28.4 °F 16.6 °F 21.9 °F 77% 29.83 in 10.0 mi WSW 16.1 mph 23.0 mph N/A   Overcast
12:35 PM 28.4 °F 16.6 °F 22.1 °F 77% 29.82 in 10.0 mi WSW 16.1 mph 23.0 mph N/A   Overcast
12:55 PM 28.4 °F 17.5 °F 21.9 °F 77% 29.82 in 10.0 mi WSW 13.8 mph 20.7 mph N/A   Overcast
1:15 PM 28.4 °F 18.5 °F 22.3 °F 78% 29.82 in 10.0 mi WSW 11.5 mph 17.3 mph N/A   Overcast
1:35 PM 28.0 °F 17.0 °F 21.9 °F 78% 29.81 in 10.0 mi WSW 13.8 mph 20.7 mph N/A   Overcast
1:56 PM 27.9 °F 16.3 °F 22.1 °F 79% 29.81 in 10.0 mi WSW 15.0 mph 21.9 mph N/A   Overcast
2:15 PM 27.7 °F 18.2 °F 21.7 °F 78% 29.82 in 10.0 mi WSW 10.4 mph 24.2 mph N/A   Overcast
2:35 PM 27.9 °F 15.5 °F 21.7 °F 78% 29.82 in 10.0 mi WSW 17.3 mph - N/A   Overcast
2:55 PM 27.5 °F 18.6 °F 21.6 °F 78% 29.82 in 10.0 mi WSW 9.2 mph 20.7 mph N/A   Overcast
3:15 PM 27.5 °F 16.3 °F 21.7 °F 79% 29.82 in 10.0 mi WSW 13.8 mph 17.3 mph N/A   Overcast
3:35 PM 27.3 °F 14.0 °F 21.6 °F 79% 29.82 in 10.0 mi WSW 19.6 mph 26.5 mph N/A   Overcast
3:55 PM 27.1 °F 13.8 °F 21.4 °F 79% 29.83 in 10.0 mi WSW 19.6 mph 27.6 mph N/A   Overcast
4:15 PM 27.1 °F 14.1 °F 21.6 °F 80% 29.84 in 10.0 mi WSW 18.4 mph 31.1 mph N/A   Overcast
4:35 PM 27.3 °F 14.4 °F 21.7 °F 80% 29.85 in 10.0 mi WSW 18.4 mph 26.5 mph N/A   Overcast
4:55 PM 27.3 °F 14.8 °F 21.7 °F 80% 29.86 in 10.0 mi WSW 17.3 mph 23.0 mph N/A   Overcast
5:15 PM 27.3 °F 16.6 °F 21.9 °F 80% 29.86 in 10.0 mi WSW 12.7 mph 21.9 mph N/A   Mostly Cloudy
5:36 PM 27.3 °F 14.8 °F 22.1 °F 81% 29.86 in 10.0 mi WSW 17.3 mph 24.2 mph N/A   Mostly Cloudy
5:55 PM 27.5 °F 14.6 °F 22.5 °F 81% 29.87 in 10.0 mi WSW 18.4 mph 24.2 mph N/A   Mostly Cloudy
6:15 PM 27.5 °F 15.4 °F 22.6 °F 82% 29.88 in 10.0 mi WSW 16.1 mph 24.2 mph N/A   Mostly Cloudy
6:35 PM 27.5 °F 16.8 °F 22.8 °F 83% 29.89 in 10.0 mi WSW 12.7 mph 18.4 mph N/A   Scattered Clouds
6:55 PM 27.5 °F 15.4 °F 22.8 °F 83% 29.90 in 10.0 mi WSW 16.1 mph - N/A   Clear
7:15 PM 27.5 °F 17.4 °F 23.0 °F 83% 29.92 in 10.0 mi WSW 11.5 mph 20.7 mph N/A   Clear
7:35 PM 27.5 °F 20.2 °F 23.0 °F 83% 29.93 in 10.0 mi West 6.9 mph - N/A   Scattered Clouds
7:55 PM 28.2 °F 18.9 °F 23.7 °F 83% 29.94 in 10.0 mi WSW 10.4 mph - N/A   Mostly Cloudy
8:15 PM 28.4 °F 17.5 °F 23.9 °F 83% 29.94 in 10.0 mi WSW 13.8 mph 18.4 mph N/A   Overcast
8:35 PM 28.8 °F 20.2 °F 24.3 °F 83% 29.95 in 10.0 mi WSW 9.2 mph - N/A   Overcast
8:55 PM 29.3 °F 20.2 °F 24.8 °F 83% 29.96 in 10.0 mi WSW 10.4 mph - N/A   Overcast
9:15 PM 29.8 °F 22.2 °F 25.0 °F 82% 29.97 in 10.0 mi West 8.1 mph - N/A   Overcast
9:35 PM 30.6 °F 23.1 °F 24.8 °F 79% 29.98 in 10.0 mi West 8.1 mph - N/A   Overcast
9:55 PM 31.5 °F 25.8 °F 25.0 °F 77% 29.99 in 10.0 mi West 5.8 mph - N/A   Overcast
10:15 PM 32.0 °F 24.2 °F 25.0 °F 75% 30.00 in 10.0 mi WNW 9.2 mph - N/A   Overcast
10:35 PM 32.5 °F 22.7 °F 23.7 °F 70% 30.01 in 10.0 mi NW 13.8 mph 25.3 mph N/A   Overcast
10:55 PM 32.5 °F 21.2 °F 22.6 °F 67% 30.02 in 10.0 mi NW 18.4 mph 28.8 mph N/A   Overcast
11:15 PM 32.0 °F 21.2 °F 21.4 °F 65% 30.02 in 10.0 mi NW 16.1 mph 24.2 mph N/A   Overcast
11:36 PM 32.0 °F 24.8 °F 21.2 °F 64% 30.05 in 10.0 mi WNW 8.1 mph 21.9 mph N/A   Overcast
11:55 PM 32.0 °F 22.1 °F 20.8 °F 63% 30.05 in 10.0 mi NW 13.8 mph 21.9 mph N/A   Overcast